EW9248 Weather Reports


Display with metric or nautical units.
time (UTC)temp
F
wind
direction
speed
MPH
gust
MPH
rain 1hr
in
rain 24hr
in
rain mn
in
humidity
%
barometer
mb
20260507040656 45 0.0 0.0 0.00 0.29 0.00 95 1011.4
20260507035717 45 0.0 0.0 0.00 0.29 0.28 95 1011.5
20260507034716 45 0.0 0.0 0.00 0.29 0.28 95 1011.3
20260507033716 45 0.0 0.0 0.00 0.29 0.28 95 1011.2
20260507032657 45 0.0 0.0 0.00 0.29 0.28 95 1011.3
20260507031616 45 0.0 0.0 0.00 0.29 0.28 95 1011.8
20260507030656 45 0.0 0.0 0.00 0.29 0.28 95 1011.7
20260507025637 45 0.0 0.0 0.00 0.29 0.28 95 1011.6
20260507024616 45 0.0 0.0 0.00 0.29 0.28 94 1012.0
20260507023636 45 0.0 0.0 0.00 0.29 0.28 94 1011.8
20260507022617 45 0.0 0.0 0.00 0.29 0.28 94 1011.6
20260507021656 45 0.0 0.0 0.00 0.29 0.28 94 1012.0
20260507020616 45 0.0 0.0 0.00 0.29 0.28 94 1011.8
20260507015617 45 0.0 0.0 0.00 0.29 0.28 94 1011.9
20260507014616 45 0.0 0.0 0.00 0.29 0.28 94 1012.0
20260507013636 45 0.0 0.0 0.00 0.29 0.28 93 1011.9
20260507012616 45 0.0 0.0 0.00 0.29 0.28 93 1011.8
20260507011616 46 0.0 0.0 0.00 0.29 0.28 93 1011.9
20260507010657 46 0.0 0.0 0.00 0.29 0.28 93 1011.8
20260507005616 46 0.0 0.0 0.00 0.29 0.28 93 1011.5
20260507004616 46 0.0 0.0 0.00 0.29 0.28 92 1011.4
20260507003616 46 0.0 0.0 0.00 0.29 0.28 92 1011.5
20260507002737 46 0.0 0.0 0.00 0.29 0.28 92 1011.3
20260507001700 46 0.0 0.0 0.00 0.29 0.28 91 1011.3
20260507000656 46 0.0 0.0 0.00 0.29 0.28 91 1011.2
20260506235616 46 0.0 0.0 0.00 0.29 0.28 91 1011.0
20260506234656 46 0.0 0.0 0.00 0.29 0.28 91 1011.0
20260506233616 47 0.0 0.0 0.00 0.29 0.28 91 1010.8
20260506232615 46 0.0 0.0 0.00 0.29 0.28 90 1010.8
20260506231717 46 0.0 3.0 0.00 0.29 0.28 91 1010.8
20260506230636 47 0.0 0.0 0.00 0.29 0.28 91 1010.8
20260506225636 46 0.0 0.0 0.00 0.29 0.28 91 1010.3
20260506224636 47 270 1.0 3.0 0.00 0.29 0.28 91 1010.5
20260506223636 47 292 4.0 7.0 0.00 0.29 0.28 91 1010.4
20260506222636 47 292 1.0 2.0 0.00 0.29 0.28 91 1010.2
20260506221656 47 292 1.0 3.0 0.00 0.30 0.28 91 1010.1
20260506215616 47 292 2.0 4.0 0.00 0.30 0.28 92 1010.1
20260506214615 47 270 2.0 4.0 0.00 0.30 0.28 92 1010.2
20260506213615 47 0.0 1.0 0.00 0.30 0.28 92 1010.1
20260506212635 47 270 4.0 7.0 0.00 0.30 0.28 92 1009.9
20260506211656 47 0.0 2.0 0.00 0.30 0.28 93 1009.7
20260506210716 47 270 7.0 13.0 0.00 0.30 0.28 93 1009.6
20260506204656 48 337 2.0 5.0 0.00 0.30 0.28 93 1009.2
20260506203635 48 292 6.0 9.0 0.00 0.30 0.28 93 1008.9
20260506202656 48 0 2.0 7.0 0.01 0.30 0.28 94 1008.8
20260506201638 48 292 2.0 6.0 0.01 0.30 0.28 94 1008.7
20260506200615 48 0.0 1.0 0.01 0.30 0.28 94 1008.3
20260506195635 48 0.0 1.0 0.02 0.30 0.28 94 1008.2
20260506194615 48 0.0 1.0 0.02 0.30 0.28 94 1008.2
20260506193615 47 0 1.0 4.0 0.02 0.32 0.28 94 1008.2
20260506192615 48 0.0 3.0 0.01 0.36 0.28 94 1008.2
20260506191711 48 0 3.0 4.0 0.01 0.37 0.28 94 1008.2
20260506191315 48 0.0 1.0 0.01 0.37 0.28 94 1008.1
20260506190315 48 315 3.0 4.0 0.01 0.37 0.28 94 1008.1
20260506185319 49 292 1.0 2.0 0.00 0.36 0.27 94 1007.8
20260506184315 49 0.0 1.0 0.00 0.36 0.27 95 1007.4
20260506183316 49 0.0 1.0 0.01 0.36 0.27 95 1007.3
20260506182315 49 270 1.0 3.0 0.01 0.36 0.27 95 1007.2
20260506181315 48 0.0 0.0 0.01 0.36 0.27 95 1007.3
20260506180316 49 0.0 0.0 0.01 0.36 0.27 95 1007.3
20260506175315 49 270 1.0 2.0 0.01 0.36 0.27 95 1007.2
20260506174415 49 292 1.0 4.0 0.01 0.36 0.27 95 1007.0
20260506173436 49 292 1.0 2.0 0.00 0.35 0.26 95 1006.7
20260506172335 49 247 1.0 3.0 0.01 0.35 0.26 95 1006.7
20260506171315 49 292 1.0 3.0 0.01 0.35 0.26 95 1006.7
20260506170335 49 0.0 1.0 0.01 0.35 0.26 95 1006.7
20260506165336 49 292 2.0 3.0 0.01 0.35 0.26 95 1006.6
20260506164315 49 0.0 0.0 0.02 0.35 0.26 95 1006.6
20260506163315 49 292 1.0 4.0 0.03 0.35 0.26 95 1006.7
20260506162315 49 0.0 1.0 0.02 0.34 0.25 95 1006.4
20260506161315 50 0.0 1.0 0.02 0.34 0.25 95 1006.4
20260506160335 52 315 1.0 2.0 0.02 0.34 0.25 95 1006.3
20260506155416 52 0.0 1.0 0.02 0.34 0.25 95 1006.1
20260506154315 53 22 1.0 4.0 0.01 0.33 0.24 95 1006.3
20260506153355 54 270 2.0 6.0 0.01 0.32 0.23 95 1006.4
20260506152315 57 270 1.0 2.0 0.01 0.32 0.23 96 1006.3
20260506151415 57 0.0 1.0 0.02 0.32 0.23 96 1006.2
20260506150316 57 0.0 1.0 0.02 0.32 0.23 96 1006.1
20260506145315 57 0.0 1.0 0.02 0.32 0.23 96 1006.1
20260506144315 57 247 1.0 2.0 0.02 0.32 0.23 96 1006.0
20260506143315 56 0.0 0.0 0.02 0.31 0.22 96 1005.7
20260506142355 55 0.0 0.0 0.03 0.31 0.22 96 1006.0
20260506141355 55 0.0 1.0 0.03 0.30 0.21 96 1006.0
20260506140335 54 0.0 0.0 0.05 0.30 0.21 96 1006.0
20260506135356 54 0.0 0.0 0.06 0.30 0.21 96 1006.1
20260506134335 53 0.0 0.0 0.08 0.30 0.21 96 1006.3
20260506133317 52 0.0 1.0 0.09 0.29 0.20 96 1006.4
20260506132438 52 0.0 0.0 0.10 0.28 0.19 95 1006.5
20260506131337 52 0.0 0.0 0.10 0.27 0.18 96 1006.8
20260506130337 52 0.0 0.0 0.08 0.25 0.16 96 1006.8
20260506125317 52 0.0 0.0 0.07 0.24 0.15 96 1006.9
20260506124418 52 0.0 1.0 0.06 0.22 0.13 95 1007.0
20260506123316 52 0.0 0.0 0.04 0.20 0.11 95 1006.7
20260506122317 52 0.0 0.0 0.03 0.18 0.09 95 1006.5
20260506121337 52 0.0 0.0 0.04 0.17 0.08 95 1006.6
20260506120357 51 0.0 0.0 0.05 0.17 0.08 95 1006.5
20260506115316 51 0.0 0.0 0.06 0.17 0.08 95 1006.5
20260506114337 51 0.0 1.0 0.05 0.16 0.07 95 1006.7
20260506113356 51 0.0 0.0 0.05 0.16 0.07 95 1006.8
20260506112316 51 0.0 0.0 0.04 0.15 0.06 95 1007.1
20260506111337 51 0.0 0.0 0.02 0.12 0.04 95 1007.2
20260506110337 51 0.0 0.0 0.01 0.11 0.03 95 1007.2
20260506105316 51 0.0 0.0 0.01 0.10 0.02 95 1007.1
20260506104316 51 0.0 0.0 0.01 0.10 0.02 95 1006.9
20260506103316 51 0.0 0.0 0.01 0.10 0.02 95 1007.0
20260506102336 51 0.0 0.0 0.01 0.10 0.02 95 1007.2
20260506101316 51 0.0 0.0 0.02 0.10 0.02 94 1007.1
20260506100337 51 0.0 0.0 0.02 0.10 0.02 94 1007.0
20260506095417 51 0.0 0.0 0.01 0.10 0.01 94 1006.8
20260506094316 51 0.0 0.0 0.01 0.10 0.01 94 1006.9
20260506093336 51 0.0 0.0 0.01 0.10 0.01 94 1007.0
20260506092336 51 0.0 0.0 0.01 0.10 0.01 94 1007.0
20260506091316 51 0.0 0.0 0.00 0.09 0.00 94 1007.0
20260506090417 51 0.0 0.0 0.00 0.09 0.00 94 1006.8
20260506085337 51 0.0 0.0 0.00 0.09 0.00 94 1007.0
20260506084316 51 0.0 0.0 0.00 0.09 0.00 94 1007.2
20260506083316 51 0.0 0.0 0.00 0.09 0.00 94 1007.3
20260506082336 51 0.0 0.0 0.00 0.09 0.00 94 1007.4
20260506081316 51 0.0 0.0 0.00 0.09 0.00 94 1007.4
20260506080337 51 0.0 0.0 0.00 0.09 0.00 94 1007.2
20260506073337 51 67 1.0 2.0 0.00 0.09 0.00 94 1007.2
20260506072316 50 0.0 0.0 0.00 0.09 0.00 95 1008.1
20260506071436 50 0.0 0.0 0.00 0.09 0.00 94 1008.0
20260506070316 50 0.0 0.0 0.00 0.09 0.00 94 1007.9
20260506062316 50 0.0 1.0 0.00 0.09 0.00 94 1008.5
20260506061416 50 0.0 0.0 0.00 0.09 0.00 94 1008.4
20260506060317 50 0.0 0.0 0.00 0.09 0.00 94 1008.5
20260506051316 50 0.0 0.0 0.00 0.09 0.00 94 1009.2
20260506050336 50 0.0 0.0 0.00 0.09 0.00 94 1009.3
20260506044357 50 0.0 0.0 0.00 0.09 0.00 93 1009.6
20260506043316 50 0.0 0.0 0.00 0.09 0.00 93 1009.7
20260506042317 51 0.0 0.0 0.00 0.09 0.00 93 1009.5
20260506041336 51 0.0 0.0 0.00 0.09 0.00 92 1009.4